DW0417 Weather Reports


time (UTC)temp
F
wind
direction
speed
knots
gust
knots
rain 1hr
in
rain 24hr
in
rain mn
in
humidity
%
barometer
mb
20260506042733 33 147 0.0 0.0 0.00 0.68 0.68 92 1015.5
20260506041730 33 147 0.0 0.0 0.00 0.68 0.68 92 1015.5
20260506040731 33 146 0.0 0.0 0.00 0.68 0.68 92 1015.3
20260506035728 33 173 0.0 0.0 0.00 0.68 0.68 92 1015.0
20260506034728 33 173 0.0 0.0 0.00 0.68 0.68 92 1015.2
20260506033729 33 173 0.0 0.0 0.00 0.68 0.68 92 1015.2
20260506032726 33 175 0.0 0.0 0.00 0.68 0.68 92 1015.2
20260506031726 33 155 0.0 0.9 0.00 0.68 0.68 92 1015.0
20260506030725 33 174 0.0 0.0 0.00 0.69 0.68 92 1014.9
20260506025725 33 188 0.0 1.7 0.00 0.73 0.68 92 1014.6
20260506024724 33 181 0.0 0.9 0.00 0.76 0.68 92 1014.4
20260506023724 33 184 0.0 0.0 0.00 0.81 0.68 92 1014.2
20260506023205 33 176 0.0 0.9 0.00 0.83 0.68 92 1014.1
20260506021724 33 219 0.0 1.7 0.00 0.84 0.68 92 1013.8
20260506020723 33 191 0.0 1.7 0.00 0.84 0.68 92 1013.8
20260506015725 33 172 0.0 0.9 0.00 0.84 0.68 92 1013.5
20260506014720 33 191 0.0 1.7 0.00 0.84 0.68 92 1013.7
20260506013720 33 172 0.9 1.7 0.00 0.84 0.68 92 1013.4
20260506012720 33 179 0.9 1.7 0.00 0.84 0.68 92 1013.2
20260506012154 33 165 0.9 2.6 0.00 0.84 0.68 92 1013.5
20260506010720 33 176 0.9 2.6 0.00 0.84 0.68 92 1013.1
20260506005719 33 193 0.9 3.5 0.00 0.84 0.68 92 1013.1
20260506004719 33 183 0.9 4.3 0.00 0.84 0.68 92 1013.0
20260506003718 33 187 0.0 2.6 0.00 0.84 0.68 92 1013.0
20260506003158 33 173 0.0 0.0 0.00 0.84 0.68 91 1013.0
20260506001716 33 205 0.0 0.0 0.00 0.84 0.68 91 1013.0
20260506001157 33 149 0.0 0.0 0.00 0.84 0.68 91 1013.0
20260505235710 33 181 0.0 0.0 0.00 0.84 0.68 91 1013.0
20260505235642 33 187 0.0 0.0 0.00 0.84 0.68 91 1012.9
20260505233709 33 190 0.0 2.6 0.00 0.84 0.68 91 1012.9
20260505232709 33 193 1.7 4.3 0.00 0.84 0.68 91 1012.4
20260505231710 33 149 1.7 4.3 0.00 0.84 0.68 91 1012.5
20260505230710 33 171 1.7 4.3 0.00 0.84 0.68 91 1012.8
20260505225709 33 191 0.9 4.3 0.00 0.84 0.68 91 1012.8
20260505224711 33 179 1.7 7.0 0.01 0.84 0.68 91 1012.9
20260505223710 33 138 2.6 8.7 0.01 0.84 0.68 91 1012.9
20260505222707 33 172 3.5 7.8 0.01 0.84 0.68 91 1012.5
20260505221707 34 209 2.6 7.0 0.01 0.84 0.68 91 1012.2
20260505220707 34 203 3.5 8.7 0.01 0.84 0.68 91 1012.5
20260505215707 34 172 4.3 9.6 0.01 0.84 0.68 91 1012.2
20260505214707 35 198 3.5 9.6 0.00 0.83 0.67 91 1012.0
20260505214154 35 192 5.2 11.3 0.01 0.83 0.67 91 1011.8
20260505212707 35 209 4.3 8.7 0.01 0.83 0.67 91 1011.8
20260505211707 35 188 4.3 11.3 0.03 0.83 0.67 91 1012.1
20260505210707 34 214 5.2 9.6 0.05 0.83 0.67 91 1012.3
20260505205709 34 200 3.5 8.7 0.06 0.83 0.67 91 1012.2
20260505204707 35 230 4.3 11.3 0.07 0.83 0.67 90 1012.3
20260505203707 37 209 2.6 7.8 0.06 0.82 0.66 91 1012.1
20260505202707 37 194 2.6 6.1 0.07 0.82 0.66 91 1012.5
20260505201707 38 181 0.9 4.3 0.05 0.80 0.64 91 1012.7
20260505200706 38 263 0.9 3.5 0.04 0.78 0.62 91 1012.7
20260505195709 38 178 0.9 3.5 0.05 0.77 0.61 91 1012.9
20260505195151 38 174 0.9 4.3 0.04 0.76 0.60 91 1012.5
20260505193702 38 210 0.9 4.3 0.04 0.76 0.60 91 1012.7
20260505193139 38 200 0.9 4.3 0.03 0.75 0.59 90 1013.0
20260505191701 38 146 0.0 1.7 0.03 0.75 0.59 90 1012.8
20260505190702 38 90 0.0 0.9 0.03 0.74 0.58 90 1012.7
20260505185702 38 149 0.0 0.9 0.03 0.72 0.56 91 1012.7
20260505184702 38 136 0.0 1.7 0.05 0.72 0.56 91 1012.9
20260505183702 38 299 0.9 2.6 0.07 0.72 0.56 91 1012.8
20260505183149 37 131 0.0 1.7 0.09 0.72 0.56 91 1013.0
20260505181702 37 169 0.0 1.7 0.10 0.72 0.56 91 1013.4
20260505180658 37 158 0.0 1.7 0.10 0.71 0.55 91 1013.6
20260505180139 37 160 0.0 0.9 0.10 0.69 0.54 91 1013.4
20260505174659 37 174 0.0 0.9 0.09 0.67 0.51 91 1013.5
20260505173700 36 186 0.0 0.9 0.09 0.65 0.50 91 1013.5
20260505172658 36 186 0.9 2.6 0.08 0.63 0.48 91 1013.7
20260505171655 36 167 0.9 2.6 0.09 0.62 0.46 91 1013.8
20260505170654 36 173 0.9 2.6 0.09 0.61 0.45 91 1014.2
20260505165654 36 181 0.0 1.7 0.08 0.59 0.43 91 1013.9
20260505164648 36 198 0.0 1.7 0.08 0.58 0.42 91 1013.9
20260505163647 35 163 0.9 3.5 0.07 0.56 0.40 91 1013.9
20260505162646 35 173 1.7 2.6 0.06 0.55 0.39 91 1013.9
20260505161647 36 195 0.0 0.9 0.05 0.53 0.37 91 1013.9
20260505160646 35 210 0.0 1.7 0.05 0.52 0.36 91 1014.2
20260505160132 35 214 0.0 2.6 0.05 0.51 0.35 91 1014.3
20260505153136 35 184 0.9 2.6 0.06 0.49 0.33 91 1014.3
20260505151647 35 174 1.7 2.6 0.05 0.48 0.32 91 1014.4
20260505150647 35 198 0.0 1.7 0.05 0.47 0.31 91 1014.4
20260505140642 33 160 0.0 0.0 0.01 0.42 0.26 91 1014.4
20260505124630 34 155 0.0 0.9 0.00 0.40 0.24 91 1013.7
20260505124109 33 161 0.0 0.9 0.00 0.40 0.24 91 1013.6
20260505122632 34 167 0.0 0.9 0.01 0.40 0.24 91 1013.6
20260505122610 34 160 0.0 1.7 0.01 0.40 0.24 91 1013.5
20260505120631 34 171 0.9 2.6 0.02 0.40 0.24 90 1013.4
20260505120105 35 209 1.7 5.2 0.03 0.40 0.24 90 1013.4
20260505114626 35 138 2.6 6.1 0.05 0.40 0.24 90 1013.4
20260505113625 35 181 3.5 7.8 0.07 0.40 0.24 90 1013.2
20260505112626 36 167 3.5 7.8 0.08 0.39 0.23 90 1013.1
20260505111624 36 203 4.3 9.6 0.10 0.39 0.23 90 1013.0
20260505110626 36 219 3.5 8.7 0.10 0.38 0.22 90 1012.9
20260505101618 40 163 4.3 9.6 0.12 0.29 0.13 90 1012.3
20260505101108 41 159 5.2 10.4 0.11 0.28 0.12 90 1012.2
20260505095618 41 203 3.5 11.3 0.09 0.26 0.11 90 1012.0
20260505094616 42 178 1.7 5.2 0.07 0.24 0.08 89 1012.1
20260505093616 42 182 1.7 7.0 0.04 0.21 0.05 89 1011.7
20260505092617 42 209 1.7 6.1 0.01 0.18 0.02 89 1011.6
20260505091616 42 207 2.6 8.7 0.00 0.17 0.01 89 1011.7
20260505090617 42 194 3.5 12.2 0.00 0.17 0.01 89 1011.5
20260505085611 42 207 5.2 10.4 0.00 0.17 0.01 89 1011.1
20260505084611 42 191 4.3 9.6 0.00 0.17 0.01 89 1011.1
20260505083611 43 255 2.6 9.6 0.01 0.17 0.01 89 1011.3
20260505082612 43 187 4.3 8.7 0.01 0.17 0.01 89 1011.1
20260505081609 43 207 4.3 9.6 0.01 0.17 0.01 89 1011.1
20260505080612 43 183 5.2 10.4 0.01 0.17 0.01 88 1011.3
20260505080542 43 162 6.1 13.0 0.01 0.17 0.01 88 1011.1
20260505074610 44 155 5.2 12.2 0.01 0.17 0.01 87 1011.0
20260505073612 44 231 4.3 12.2 0.00 0.16 0.00 86 1011.1
20260505072606 45 202 6.1 11.3 0.00 0.16 0.00 86 1011.1
20260505071606 47 191 5.2 12.2 0.00 0.16 0.00 87 1011.1
20260505070605 47 206 1.7 6.1 0.00 0.16 0.00 90 1010.9
20260505065604 47 37 0.9 2.6 0.00 0.16 0.00 90 1010.6
20260505064605 46 30 0.0 0.0 0.00 0.16 0.00 90 1010.4
20260505063605 46 30 0.0 0.0 0.00 0.16 0.00 89 1010.3
20260505062605 46 30 0.0 0.0 0.00 0.16 0.00 89 1010.3
20260505061605 46 30 0.0 0.0 0.00 0.16 0.00 89 1010.4
20260505060605 46 30 0.0 0.0 0.00 0.16 0.00 89 1010.4
20260505055558 46 30 0.0 0.9 0.00 0.16 0.16 89 1010.4
20260505054559 46 30 0.0 0.0 0.00 0.16 0.16 88 1010.6
20260505053558 47 30 0.9 0.9 0.00 0.16 0.16 87 1010.3
20260505052559 46 30 0.0 0.9 0.00 0.16 0.16 88 1010.2
20260505051557 47 30 0.0 0.9 0.00 0.16 0.16 86 1010.1
20260505051036 47 30 0.9 1.7 0.00 0.16 0.16 84 1010.1